Home   Weather   Prudhoe Bay   Past weeks
Flag for USA

Past Weather in Prudhoe Bay, Alaska, USA — Yesterday and Last 2 Weeks

Now
36 °F

Scattered clouds.


Feels Like: 26 °F
Forecast: 35 / 29 °F
Wind: 16 mph from West

Location: Deadhorse Airport

Current Time: May 25, 2019 at 1:09:23 am

Latest Report: May 24, 2019 at 11:53 pm


Visibility: 10 mi

Pressure: 30.16 "Hg

Humidity: 75%

Dew Point: 29 °F

Location of Prudhoe BayLocation

Past Weather in Prudhoe Bay — Graph

°F

Prudhoe Bay Temperature Yesterday

Maximum temperature yesterday: 40 °F (at 9:53 am)
Minimum temperature yesterday: 30 °F (at 3:07 am)
Average temperature yesterday: 36 °F

High & Low Weather Summary for the Past Weeks

 TemperatureHumidityPressure
High47 °F (May 22, 3:53 pm)96% (May 21, 9:08 am)30.18 "Hg (May 21, 9:08 am)
Low21 °F (May 11, 2:37 am)66% (May 22, 3:53 pm)29.70 "Hg (May 11, 5:53 am)
Average32 °F84%29.95 "Hg
* Reported May 9 11:36 pm — May 24 11:53 pm, Prudhoe Bay. Weather by CustomWeather, © 2019

Note: Actual official high and low records may vary slightly from our data, if they occured in-between our weather recording intervals... More about our weather records

Advertising

Prudhoe Bay Weather History for the Previous 24 Hours

Scroll right to see more
 ConditionsComfort  
Time TempWeatherWind HumidityBarometerVisibility
11:53 pm
Fri, May 24
36 °FScattered clouds.16 mph75%30.16 "Hg10 mi
11:15 pm37 °FPartly sunny.18 mph76%30.15 "Hg10 mi
10:53 pm38 °FScattered clouds.20 mph73%30.15 "Hg10 mi
9:53 pm38 °FScattered clouds.16 mph73%30.14 "Hg10 mi
9:32 pm39 °FScattered clouds.16 mph73%30.14 "Hg10 mi
8:53 pm40 °FPartly sunny.18 mph70%30.14 "Hg10 mi
7:53 pm39 °FOvercast.17 mph70%30.14 "Hg10 mi
6:53 pm38 °FOvercast.18 mph76%30.14 "Hg10 mi
5:53 pm38 °FOvercast.18 mph76%30.14 "Hg10 mi
5:36 pm38 °FOvercast.16 mph76%30.13 "Hg10 mi
4:53 pm39 °FPartly sunny.18 mph76%30.12 "Hg10 mi
3:53 pm38 °FMostly cloudy.15 mph79%30.11 "Hg10 mi
3:31 pm38 °FCloudy.15 mph76%30.10 "Hg10 mi
2:53 pm39 °FLow clouds.21 mph76%30.09 "Hg10 mi
2:26 pm38 °FMore clouds than sun.18 mph83%30.08 "Hg10 mi
2:12 pm38 °FFog.18 mph86%30.07 "Hg6 mi
1:53 pm37 °FFog.16 mph86%30.07 "Hg1 mi
1:01 pm38 °FFog.14 mph86%30.05 "Hg2 mi
12:30 pm38 °FMostly cloudy.15 mph86%30.04 "Hg10 mi
11:53 am39 °FMostly cloudy.14 mph79%30.03 "Hg10 mi
11:40 am40 °FCloudy.14 mph77%30.03 "Hg10 mi
10:53 am39 °FPartly sunny.12 mph79%30.01 "Hg10 mi
9:53 am40 °FPartly sunny.12 mph77%30.01 "Hg10 mi
8:53 am38 °FPartly sunny.12 mph83%30.00 "Hg10 mi
7:53 am37 °FPartly sunny.10 mph82%29.99 "Hg10 mi
6:53 am36 °FOvercast.10 mph85%29.98 "Hg10 mi
5:53 am35 °FPartly sunny.10 mph88%29.97 "Hg10 mi
4:53 am33 °FScattered clouds.8 mph92%29.97 "Hg10 mi
3:53 am31 °FIce fog.6 mph89%29.96 "Hg5 mi
3:38 am30 °FIce fog.5 mph89%29.96 "Hg3 mi
3:17 am30 °FIce fog.3 mph89%29.96 "Hg1 mi
3:07 am30 °FIce fog.No wind92%29.96 "Hg0 mi
2:42 am31 °FIce fog.No wind89%29.96 "Hg0 mi
2:12 am31 °FIce fog.No wind89%29.96 "Hg0 mi
1:53 am31 °FIce fog.No wind89%29.96 "Hg1 mi
1:23 am31 °FIce fog.3 mph92%29.95 "Hg1 mi
Weather by CustomWeather, © 2019

See weather overview